STARLINK-32386

Last updated on Tue Oct 08 2024 00:02:04 GMT+0000 (Coordinated Universal Time)

1 61213U 24171P 24281.58334491 -.01357461 00000+0 -17834-1 0 9994 2 61213 53.1598 212.2542 0001000 94.4697 73.3626 15.60626100 3922
UTC large
Height (km)
Speed (km/s)
/
Latitude / Longitude
Inclination (degrees)
Orbital Period (minutes)
Azimuth
Elevation
Range (km)
Doppler Factor

Next 0 passes for location: London (51.5072 / 0.1276)

Sorry there are no passes over London.